Вернуться в каталог

SKYNET 1

АктивенВоенныеGEO
NORAD 4250·PAYLOAD·🇬🇧 United Kingdom

Запущен Nov 22, 1969 с Cape Canaveral Space Force Station

Loading…

TLE

СвежийSource: Space-Track

Эпоха: Sep 14, 2026, 13:18 UTC

1 04250U 69101A   26257.55443080 -.00000099  00000-0  00000-0 0  9998
2 04250   0.6641  80.7056 0026090 160.5681 207.3599  1.00267857135415

Отслеживайте SKYNET 1 в реальном времени с AllMySat

Download on the App Store